Date String (YYYY-MM-DD hh:mm:ss) UTC,Instrument flags,absolute air pressure of the measurement (hPa),sample flow rate (lpm),inlet stack bypass flow (lpm),air temperature of the measurement (°C),ambient temperature measured by the external sensor (°C),aerosol sample conditioner tube jacket temperature (°C),OPC LED temperature (°C),internal box temperature (°C),relative humidity of the measurement (%),span deviation,mass concentration of particles derived from Lorenz-Mie calculation of OPC scattering (μg/m³),mass concentration of particles derived from Lorenz-Mie calculation of OPC scattering (μg/m³),mass concentration of particles derived from Lorenz-Mie calculation of OPC scattering (μg/m³)
DateTimeUTC,F1_M11,P_M11,Q1_M11,Q2_M11,T1_M11,T2_M11,T3_M11,T4_M11,T5_M11,U1_M11,ZSPAN_M11,X2_M11,X0_M11,X1_M11
2023-08-02 16:00:00,SystemResetWarning,0835.3,5.00,000.00,030.3,027.6,000.0,038.5,031.5,30.7,0000.0,0003.49,0008.34,0003.10
2023-08-02 16:01:00,SystemResetWarning,0835.3,5.00,000.00,030.2,026.0,000.0,038.4,031.2,30.7,0000.0,0003.52,0009.10,0003.11
2023-08-02 16:02:00,SystemResetWarning,0835.2,5.01,000.00,030.1,025.4,000.0,038.3,031.0,30.4,0000.0,0003.51,0008.32,0003.12
2023-08-02 16:03:00,SystemResetWarning,0835.2,5.01,000.00,030.0,025.5,000.0,038.3,030.8,32.7,0000.0,0003.52,0008.08,0003.14
2023-08-02 16:04:00,SystemResetWarning,0835.3,4.99,000.00,029.9,025.9,000.0,038.3,030.8,33.3,0000.0,0003.58,0008.21,0003.15
2023-08-02 16:05:00,SystemResetWarning,0835.3,5.00,000.00,029.8,026.3,000.0,038.3,030.9,32.7,0000.0,0003.63,0008.31,0003.16
2023-08-02 16:06:00,SystemResetWarning,0835.3,5.01,000.00,029.8,026.7,000.0,038.3,031.0,31.7,0000.0,0003.62,0008.34,0003.17
2023-08-02 16:07:00,SystemResetWarning,0835.3,5.01,000.00,029.8,027.1,000.0,038.3,031.0,32.4,0000.0,0003.62,0008.37,0003.17
2023-08-02 16:08:00,SystemResetWarning,0835.2,5.00,000.00,029.8,027.4,000.0,038.3,031.1,32.9,0000.0,0003.61,0008.31,0003.18
2023-08-02 16:09:00,SystemResetWarning,0835.2,5.00,000.00,029.8,027.6,000.0,038.3,031.1,31.1,0000.0,0003.63,0008.39,0003.18
2023-08-02 16:10:00,SystemResetWarning,0835.2,5.00,000.00,029.8,027.8,000.0,038.3,031.2,31.8,0000.0,0003.63,0008.48,0003.18
2023-08-02 16:11:00,SystemResetWarning,0835.2,5.00,000.00,029.9,028.0,000.0,038.3,031.2,32.3,0000.0,0003.61,0008.03,0003.17
2023-08-02 16:12:00,SystemResetWarning,0835.2,5.00,000.00,029.9,028.2,000.0,038.3,031.3,32.4,0000.0,0003.58,0006.36,0003.16
2023-08-02 16:13:00,SystemResetWarning,0835.3,4.99,000.00,029.9,028.3,000.0,038.3,031.3,31.9,0000.0,0003.57,0006.62,0003.15
2023-08-02 16:14:00,SystemResetWarning,0835.3,4.99,000.00,029.9,028.4,000.0,038.3,031.4,33.0,0000.0,0003.56,0007.87,0003.14
2023-08-02 16:15:00,SystemResetWarning,0835.3,5.00,000.00,030.0,028.5,000.0,038.3,031.4,33.2,0000.0,0003.51,0007.98,0003.13
2023-08-02 16:16:00,SystemResetWarning,0835.5,5.00,000.00,030.0,028.6,000.0,038.3,031.5,33.3,0000.0,0003.47,0007.91,0003.12
2023-08-02 16:17:00,SystemResetWarning,0835.5,5.00,000.00,030.0,028.7,000.0,038.4,031.5,33.3,0000.0,0003.45,0007.82,0003.09
2023-08-02 16:18:00,SystemResetWarning,0835.5,5.00,000.00,030.0,027.9,000.0,038.3,031.5,34.1,0000.0,0003.43,0007.77,0003.05
2023-08-02 16:19:00,SystemResetWarning,0835.5,5.01,000.00,030.0,026.2,000.0,038.2,031.3,33.5,0000.0,0003.43,0007.84,0003.03
2023-08-02 16:20:00,SystemResetWarning,0835.5,5.00,000.00,029.9,025.5,000.0,038.1,031.1,34.0,0000.0,0003.41,0007.75,0003.01
2023-08-02 16:21:00,SystemResetWarning,0835.5,5.01,000.00,029.8,025.6,000.0,038.1,030.8,33.8,0000.0,0003.39,0007.61,0003.00
2023-08-02 16:22:00,SystemResetWarning,0835.5,5.01,000.00,029.7,025.9,000.0,038.1,030.8,33.7,0000.0,0003.39,0007.61,0003.00
2023-08-02 16:23:00,SystemResetWarning,0835.5,4.99,000.00,029.7,026.4,000.0,038.1,030.9,33.6,0000.0,0003.40,0007.52,0003.02
2023-08-02 16:24:00,SystemResetWarning,0835.5,5.00,000.00,029.6,026.8,000.0,038.1,030.9,33.7,0000.0,0003.45,0007.34,0003.03
2023-08-02 16:25:00,SystemResetWarning,0835.5,5.00,000.00,029.6,027.1,000.0,038.1,031.0,32.8,0000.0,0003.46,0005.64,0003.05
2023-08-02 16:26:00,SystemResetWarning,0835.5,5.01,000.00,029.7,027.4,000.0,038.1,031.1,33.1,0000.0,0003.45,0005.41,0003.05
2023-08-02 16:27:00,SystemResetWarning,0835.5,5.01,000.00,029.7,027.7,000.0,038.1,031.1,34.2,0000.0,0003.47,0005.47,0003.05
2023-08-02 16:28:00,SystemResetWarning,0835.5,5.00,000.00,029.7,027.9,000.0,038.1,031.2,34.6,0000.0,0003.49,0005.56,0003.08
2023-08-02 16:29:00,SystemResetWarning,0835.5,4.99,000.00,029.7,028.1,000.0,038.1,031.2,34.6,0000.0,0003.50,0005.57,0003.10
2023-08-02 16:30:00,SystemResetWarning,0835.6,5.00,000.00,029.8,028.2,000.0,038.2,031.3,33.3,0000.0,0003.50,0005.60,0003.10
2023-08-02 16:31:00,SystemResetWarning,0835.6,5.00,000.00,029.8,028.4,000.0,038.2,031.3,32.9,0000.0,0003.51,0005.61,0003.10
2023-08-02 16:32:00,SystemResetWarning,0835.6,5.00,000.00,029.9,028.5,000.0,038.2,031.4,32.8,0000.0,0003.53,0005.71,0003.12
2023-08-02 16:33:00,SystemResetWarning,0835.6,5.00,000.00,029.9,028.3,000.0,038.2,031.4,32.7,0000.0,0003.52,0005.63,0003.12
2023-08-02 16:34:00,SystemResetWarning,0835.5,5.00,000.00,029.9,026.8,000.0,038.1,031.2,32.7,0000.0,0003.51,0005.61,0003.11
2023-08-02 16:35:00,SystemResetWarning,0835.6,5.00,000.00,029.8,025.5,000.0,038.0,031.0,33.7,0000.0,0003.49,0005.45,0003.11
2023-08-02 16:36:00,SystemResetWarning,0835.5,5.02,000.00,029.7,025.3,000.0,037.9,030.7,32.6,0000.0,0003.50,0005.56,0003.11
2023-08-02 16:37:00,SystemResetWarning,0835.5,5.00,000.00,029.6,025.5,000.0,038.0,030.6,32.2,0000.0,0003.51,0005.61,0003.12
2023-08-02 16:38:00,SystemResetWarning,0835.5,5.01,000.00,029.5,026.0,000.0,038.0,030.7,34.2,0000.0,0003.54,0005.79,0003.13
2023-08-02 16:39:00,SystemResetWarning,0835.5,4.98,000.00,029.5,026.4,000.0,038.0,030.8,35.1,0000.0,0003.54,0005.79,0003.13
2023-08-02 16:40:00,SystemResetWarning,0835.5,5.03,000.00,029.7,026.8,000.0,038.0,030.9,35.2,0000.0,0003.56,0005.85,0003.14
2023-08-02 16:41:00,SystemResetWarning,0835.5,4.98,000.00,029.9,027.2,000.0,038.0,031.1,33.5,0000.0,0003.58,0005.85,0003.15
2023-08-02 16:42:00,SystemResetWarning,0835.5,5.01,000.00,030.0,027.5,000.0,038.0,031.2,33.7,0000.0,0003.60,0006.03,0003.16
2023-08-02 16:43:00,SystemResetWarning,0835.5,5.01,000.00,030.1,027.7,000.0,038.1,031.2,34.1,0000.0,0003.61,0006.08,0003.16
2023-08-02 16:44:00,SystemResetWarning,0835.6,4.99,000.00,030.2,027.9,000.0,038.1,031.3,33.3,0000.0,0003.65,0006.24,0003.17
2023-08-02 16:45:00,SystemResetWarning,0835.5,4.99,000.00,030.2,028.1,000.0,038.2,031.3,33.6,0000.0,0003.69,0006.48,0003.18
2023-08-02 16:46:00,SystemResetWarning,0835.5,5.00,000.00,030.3,028.2,000.0,038.2,031.3,33.2,0000.0,0003.72,0006.64,0003.19
2023-08-02 16:47:00,SystemResetWarning,0835.6,5.00,000.00,030.3,028.4,000.0,038.3,031.4,32.7,0000.0,0003.73,0006.59,0003.19
2023-08-02 16:48:00,SystemResetWarning,0835.5,5.00,000.00,030.4,028.5,000.0,038.3,031.4,31.7,0000.0,0003.74,0006.82,0003.19
2023-08-02 16:49:00,SystemResetWarning,0835.5,5.01,000.00,030.4,028.6,000.0,038.4,031.5,31.9,0000.0,0003.70,0007.17,0003.18
2023-08-02 16:50:00,SystemResetWarning,0835.5,4.99,000.00,030.4,027.8,000.0,038.4,031.5,31.9,0000.0,0003.73,0008.09,0003.18
2023-08-02 16:51:00,SystemResetWarning,0835.5,5.00,000.00,030.4,026.2,000.0,038.3,031.2,32.3,0000.0,0003.73,0008.14,0003.18
2023-08-02 16:52:00,SystemResetWarning,0835.5,5.01,000.00,030.3,025.5,000.0,038.2,031.0,33.7,0000.0,0003.73,0008.17,0003.17
2023-08-02 16:53:00,SystemResetWarning,0835.5,5.02,000.00,030.2,025.6,000.0,038.2,030.8,33.8,0000.0,0003.70,0008.13,0003.16
2023-08-02 16:54:00,SystemResetWarning,0835.5,4.96,000.00,030.1,025.9,000.0,038.3,030.8,35.2,0000.0,0003.69,0008.14,0003.15
2023-08-02 16:55:00,SystemResetWarning,0835.5,5.04,000.00,030.2,026.4,000.0,038.3,031.0,34.4,0000.0,0003.65,0008.66,0003.14
2023-08-02 16:56:00,SystemResetWarning,0835.5,4.95,000.00,030.4,026.8,000.0,038.3,031.1,33.0,0000.0,0003.62,0008.69,0003.12
2023-08-02 16:57:00,SystemResetWarning,0835.5,5.02,000.00,030.5,027.1,000.0,038.4,031.2,31.0,0000.0,0003.58,0008.59,0003.11
2023-08-02 16:58:00,SystemResetWarning,0835.5,5.00,000.00,030.5,027.4,000.0,038.4,031.3,32.0,0000.0,0003.55,0008.55,0003.10
2023-08-02 16:59:00,SystemResetWarning,0835.5,5.00,000.00,030.6,027.7,000.0,038.4,031.3,32.3,0000.0,0003.56,0008.47,0003.09
